Location: Roland
(31.1349°N, 85.4372°W)
Time: 22:48:38
(UTC+00:00)

S-56A Canister/Altair - Pass Details

Date: 25 April 2021
Orbit: 632 x 2501 km, 38.9° (Epoch: 11 May)

Event Time Altitude Azimuth Distance (km) Brightness Sun altitude
Exits shadow 09:30:47 37° 213° (SSW) 996 7.6 -19.0°
Drops below altitude 10° 09:34:46 10° 147° (SSE) 1,998 9.7 -18.2°
Sets 09:37:10 0° 139° (SE) 2,942 10.7 -17.8°
